STARLINK-32262

Last updated on Tue Oct 01 2024 00:02:04 GMT+0000 (Coordinated Universal Time)

1 60938U 24155Q 24274.83748119 .00051514 12490-4 10000-3 0 9993 2 60938 53.1556 45.7458 0001573 247.7803 216.6658 16.00790296 6058
UTC large
Height (km)
Speed (km/s)
/
Latitude / Longitude
Inclination (degrees)
Orbital Period (minutes)
Azimuth
Elevation
Range (km)
Doppler Factor

Next 0 passes for location: London (51.5072 / 0.1276)

Sorry there are no passes over London.